Location: Angwan Shehu
(11.2514°N, 7.4613°E)
Time: 16:06:24
(UTC+00:00)

ISS - Visible Passes

Search period start: 08 March 2021 00:00
Search period end: 18 March 2021 00:00
Orbit: 417 x 422 km, 51.6° (Epoch: 08 March)

Date Brightness Start Highest point End Pass type
(mag) Time Alt. Az. Time Alt. Az. Time Alt. Az.
13 Mar -3.5 19:02:22 10° SW 19:05:37 66° WNW 19:05:37 66° WNW visible
14 Mar -1.5 04:57:34 10° N 05:00:25 25° NE 05:03:15 10° ESE visible
14 Mar -3.5 18:15:01 10° SSW 18:18:15 48° SE 18:21:27 10° NE visible
15 Mar -0.7 04:11:22 10° NNE 04:12:53 12° NE 04:14:24 10° ENE visible
15 Mar -0.7 19:05:43 10° W 19:07:29 14° NW 19:09:15 10° NNW visible
16 Mar -3.6 04:58:52 10° NW 05:02:08 53° SW 05:05:24 10° SSE visible
16 Mar -1.6 18:17:02 10° WSW 18:19:57 28° NW 18:22:53 10° N visible
17 Mar -3.3 04:14:13 53° NNE 04:14:40 60° NE 04:17:58 10° SE visible
